Regional Weather Roundup
Issued by NWS Memphis, TN

Home | Current Version | Previous Version | Text Only | Print | Product List | Glossary On
Versions: 1 2 3 4 5 6 7 8 9 10 11 12 13 14 15 16 17 18 19 20 21 22 23 24 25 26 27 28 29 30 31 32 33 34 35 36 37 38 39 40 41 42 43 44 45 46 47 48 49 50
000
ASUS44 KMEG 031610
RWRMEG
MEMPHIS CWA HOURLY WEATHER ROUNDUP
NATIONAL WEATHER SERVICE MEMPHIS TN
1100 AM CDT THU SEP 03 2015

...WEST TENNESSEE...

CITY           SKY/WX    TMP DP  RH WIND       PRES   REMARKS
MEMPHIS INTL   MOSUNNY   88  71  57 VRB5      30.03F HX  94
NWS MEMPHIS      N/A     88 N/A N/A MISG        N/A
JACKSON        MOSUNNY   86  71  60 VRB3      30.03F HX  91
LEXINGTON      SUNNY     86  72  62 VRB3      30.02F HX  92
DYERSBURG      SUNNY     84  73  70 N3        30.04S HX  91
UNION CITY     SUNNY     88  72  58 NE3       30.02F HX  94
PARIS          SUNNY     84  70  61 VRB3      30.04F


...EASTERN ARKANSAS...

CITY           SKY/WX    TMP DP  RH WIND       PRES   REMARKS
JONESBORO      SUNNY     86  70  58 CALM      30.02F HX  90
WEST MEMPHIS   SUNNY     85  74  69 S5        30.02F HX  92
BATESVILLE     SUNNY     86  72  62 SE5       30.04S HX  92
NEWPORT        SUNNY     89  70  53 CALM      30.04S HX  94
WALNUT RIDGE   SUNNY     86  70  58 NW3       30.02F HX  90
BLYTHEVILLE    SUNNY     88  72  58 CALM      30.03F HX  94
SEARCY         SUNNY     86  71  60 CALM      30.04F HX  91
STUTTGART      SUNNY     88  70  55 S5        30.02F HX  92
PINE BLUFF     SUNNY     85  73  67 CALM      30.02S HX  91
MONTICELLO     SUNNY     87  74  64 NE5       30.01F HX  95


...NORTH MISSISSIPPI...

CITY           SKY/WX    TMP DP  RH WIND       PRES   REMARKS
TUPELO         SUNNY     85  71  63 NE3       30.02F HX  90
OXFORD         SUNNY     82  70  65 CALM      30.05F
OLIVE BRANCH   MOSUNNY   84  73  70 SE3       30.04S HX  91
TUNICA           N/A    N/A N/A N/A MISG        N/A
CLARKSDALE     SUNNY     84  72  65 E3        30.03S
CORINTH        SUNNY     84  72  65 CALM      30.03F
GREENWOOD      SUNNY     87  66  49 CALM      30.02R
COLUMBUS       MOSUNNY   87  71  59 NW6       30.01S HX  92
STARKVILLE     PTSUNNY   86  72  62 E3        30.02F HX  92
GOLDEN TRIANGL PTSUNNY   88  72  58 NW7       30.01F HX  94


...SOUTHEAST MISSOURI...

CITY           SKY/WX    TMP DP  RH WIND       PRES   REMARKS
WEST PLAINS    SUNNY     83  68  60 S7        30.08S
POPLAR BLUFF   SUNNY     85  73  67 MISG      30.02F HX  91
CAPE GIRARDEAU SUNNY     86  70  58 CALM      30.03F HX  90


...NORTHWEST ALABAMA...

CITY           SKY/WX    TMP DP  RH WIND       PRES   REMARKS
MUSCLE SHOALS  SUNNY     86  71  60 VRB3      30.04F HX  91


...MIDDLE TENNESSEE...

CITY           SKY/WX    TMP DP  RH WIND       PRES   REMARKS
NASHVILLE      MOSUNNY   89  67  47 E5        30.04F HX  92
CLARKSVILLE    SUNNY     87  66  49 CALM      30.03F
COLUMBIA       SUNNY     88  75  66 E5        30.03F HX  97


...WESTERN KENTUCKY...

CITY           SKY/WX    TMP DP  RH WIND       PRES   REMARKS
PADUCAH        SUNNY     88  68  51 CALM      30.03F HX  91
FORT CAMPBELL  SUNNY     87  68  52 VRB3      30.03F HX  91


...CENTRAL ARKANSAS...

CITY           SKY/WX    TMP DP  RH WIND       PRES   REMARKS
LITTLE ROCK    MOSUNNY   88  69  53 E3        30.03S HX  92


SKY/WX REPORTED AS FAIR MEANS FEW OR NO CLOUDS BELOW
12 THOUSAND FEET.




USA.gov is the U.S. government's official web portal to all federal, state and local government web resources and services.